Location: Kuffner-Sternwarte
(48.2130°N, 16.2960°E)
Time: 15:52:21
(UTC+02:00)

COROT - Pass Details

Date: 13 May 2026
Orbit: 594 x 855 km, 90.1° (Epoch: 21 May)

Event Time Altitude Azimuth Distance (km) Brightness Sun altitude
Rises 00:03:17 0° 360° (N) 3,372 10.7 -22.6°
Reaches altitude 10° 00:05:44 10° 358° (N) 2,405 9.7 -22.7°
Maximum altitude 00:11:06 73° 275° (W) 812 6.1 -22.9°
Enters shadow 00:12:17 52° 210° (SSW) 947 6.1 -22.9°
